Clermont County, Batavia, OH

2:49 AM EST on December 14, 2019 (GMT -0500)
Clermont County, Batavia

Weather History for KI69 - September, 2019

Change the Weather History Date:

Friday, September 6, 2019

  Actual Average (KLUK) Record (KLUK)
Temperature  
Mean Temperature 66 °F -  
Max Temperature 80 °F 82 °F 97 °F (1998)
Min Temperature 52 °F 60 °F 43 °F (1962)
Cooling Degree Days 1    
Growing Degree Days 16 (Base 50)    
Moisture  
Dew Point 60 °F    
Average Humidity 78    
Maximum Humidity 99    
Minimum Humidity 54    
Precipitation  
Precipitation 0.01 in - - ()
Sea Level Pressure  
Sea Level Pressure 29.96 in    
Wind  
Wind Speed 3 mph (West)    
Max Wind Speed 13 mph    
Max Gust Speed 18 mph    
Visibility 10 miles    
Events      
Averages and records for this station are not official NWS values.
T = Trace of Precipitation, MM = Missing Value Source: NWS Daily Summary

Daily Weather History Graph

Daily Weather History Graph

Search for Another Location

Airport or City:

Astronomy

Sep. 06, 2019 Rise Set
Actual Time 7:09 AM EDT 7:59 PM EDT
Civil Twilight 6:42 AM EDT 8:27 PM EDT
Nautical Twilight 6:10 AM EDT 8:59 PM EDT
Astronomical Twilight 5:37 AM EDT 9:32 PM EDT
Moon 3:13 PM EDT (9/6) 12:19 AM EDT (9/6)
Length of Visible Light 13h 44m
Length of Day
12h 50m
First Quarter, 55% of the Moon is Illuminated
Sep 6
First Quarter
Sep 14
Full
Sep 21
Last Quarter
Sep 28
New
Oct 5
First Quarter

Hourly Weather History & Observations

Time (EDT) Temp. Heat Index Dew Point Humidity Pressure Visibility Wind Dir Wind Speed Gust Speed Precip Events Conditions
12:15 AM 61.3 °F - 57.6 °F 87% 30.04 in 10.0 mi Calm Calm - N/A   Clear
12:35 AM 61.5 °F - 57.2 °F 86% 30.04 in 10.0 mi Calm Calm - N/A   Clear
12:55 AM 59.9 °F - 56.8 °F 90% 30.04 in 10.0 mi NNW 3.5 mph - N/A   Clear
1:18 AM 60.3 °F - 56.5 °F 87% 30.04 in 10.0 mi Calm Calm - N/A   Clear
1:36 AM 59.9 °F - 56.5 °F 88% 30.04 in 10.0 mi Calm Calm - N/A   Clear
1:55 AM 59.0 °F - 56.3 °F 91% 30.03 in 10.0 mi Calm Calm - N/A   Clear
2:15 AM 59.0 °F - 56.3 °F 91% 30.03 in 10.0 mi Calm Calm - N/A   Clear
2:35 AM 58.3 °F - 55.4 °F 90% 30.03 in 10.0 mi Calm Calm - N/A   Clear
2:58 AM 58.1 °F - 55.6 °F 91% 30.03 in 10.0 mi Calm Calm - N/A   Clear
3:36 AM 57.4 °F - 55.0 °F 92% 30.02 in 10.0 mi Calm Calm - N/A   Clear
3:55 AM 56.3 °F - 54.1 °F 92% 30.02 in 10.0 mi Calm Calm - N/A   Clear
4:15 AM 56.5 °F - 54.3 °F 92% 30.01 in 10.0 mi Calm Calm - N/A   Clear
4:38 AM 56.1 °F - 54.3 °F 94% 30.00 in 10.0 mi Calm Calm - N/A   Clear
4:57 AM 55.4 °F - 54.0 °F 95% 30.01 in 10.0 mi Calm Calm - N/A   Clear
5:16 AM 55.6 °F - 54.0 °F 94% 30.01 in 10.0 mi Calm Calm - N/A   Clear
5:35 AM 54.9 °F - 53.8 °F 96% 30.01 in 10.0 mi Calm Calm - N/A   Clear
5:55 AM 53.8 °F - 53.4 °F 99% 30.00 in 10.0 mi Calm Calm - N/A   Clear
6:19 AM 54.3 °F - 53.4 °F 97% 30.00 in 10.0 mi Calm Calm - N/A   Clear
6:37 AM 54.3 °F - 53.2 °F 96% 29.99 in 10.0 mi Calm Calm - N/A   Clear
6:55 AM 53.1 °F - 52.7 °F 99% 29.99 in 10.0 mi Calm Calm - N/A   Clear
7:15 AM 53.4 °F - 52.7 °F 97% 30.00 in 10.0 mi Calm Calm - N/A   Clear
7:35 AM 52.3 °F - 52.2 °F 99% 30.01 in 7.0 mi Calm Calm - N/A   Clear
7:59 AM 53.8 °F - 53.6 °F 99% 30.01 in 10.0 mi Calm Calm - N/A   Clear
8:17 AM 54.9 °F - 54.5 °F 99% 30.01 in 10.0 mi Calm Calm - N/A   Clear
8:35 AM 56.7 °F - 55.4 °F 96% 30.01 in 5.0 mi Calm Calm - N/A   Clear
8:55 AM 59.0 °F - 56.3 °F 91% 30.01 in 10.0 mi Calm Calm - N/A   Clear
9:15 AM 60.8 °F - 56.8 °F 87% 30.01 in 10.0 mi Calm Calm - N/A   Clear
9:39 AM 63.7 °F - 58.6 °F 84% 30.01 in 10.0 mi Calm Calm - N/A   Clear
9:57 AM 64.6 °F - 58.5 °F 80% 30.01 in 10.0 mi Calm Calm - N/A   Clear
10:15 AM 66.7 °F - 58.1 °F 74% 30.00 in 10.0 mi SSW 3.5 mph - N/A   Clear
10:35 AM 68.4 °F - 57.4 °F 68% 29.99 in 10.0 mi WSW 4.6 mph - N/A   Clear
10:55 AM 69.8 °F - 58.1 °F 66% 29.99 in 10.0 mi WSW 4.6 mph - N/A   Clear
11:19 AM 70.9 °F - 58.3 °F 64% 29.99 in 10.0 mi South 5.8 mph - N/A   Clear
11:37 AM 71.6 °F - 57.4 °F 61% 29.98 in 10.0 mi SW 6.9 mph - N/A   Clear
11:55 AM 72.1 °F - 57.7 °F 60% 29.97 in 10.0 mi SW 8.1 mph - N/A   Clear
12:15 PM 73.0 °F - 59.2 °F 62% 29.97 in 10.0 mi WSW 5.8 mph - N/A   Clear
12:35 PM 73.6 °F - 59.9 °F 62% 29.96 in 10.0 mi SW 8.1 mph - 0.01 in   Clear
12:59 PM 75.6 °F - 60.6 °F 60% 29.95 in 10.0 mi WSW 9.2 mph - 0.01 in   Mostly Cloudy
1:17 PM 75.9 °F - 60.3 °F 58% 29.94 in 10.0 mi SW 9.2 mph - N/A   Mostly Cloudy
1:35 PM 75.6 °F - 61.0 °F 60% 29.93 in 10.0 mi SW 6.9 mph - N/A   Mostly Cloudy
1:55 PM 75.9 °F - 61.0 °F 60% 29.93 in 10.0 mi WSW 10.4 mph - N/A   Overcast
2:15 PM 76.8 °F - 60.3 °F 56% 29.92 in 10.0 mi SW 8.1 mph - N/A   Overcast
2:57 PM 77.2 °F - 59.5 °F 54% 29.91 in 10.0 mi SW 9.2 mph - N/A   Overcast
3:15 PM 77.9 °F - 61.7 °F 57% 29.89 in 10.0 mi WSW 8.1 mph - N/A   Overcast
3:35 PM 77.7 °F - 61.3 °F 57% 29.88 in 10.0 mi SW 5.8 mph - N/A   Overcast
3:55 PM 79.3 °F - 62.2 °F 56% 29.88 in 10.0 mi SW 5.8 mph - N/A   Overcast
4:19 PM 80.6 °F 81.9 °F 63.1 °F 55% 29.87 in 10.0 mi SW 6.9 mph - N/A   Mostly Cloudy
4:37 PM 79.5 °F - 63.0 °F 57% 29.88 in 10.0 mi SW 6.9 mph - N/A   Mostly Cloudy
4:55 PM 79.0 °F - 63.3 °F 59% 29.88 in 10.0 mi SW 5.8 mph - N/A   Overcast
5:15 PM 78.3 °F - 64.4 °F 62% 29.88 in 10.0 mi WSW 5.8 mph - N/A   Overcast
5:35 PM 78.6 °F - 64.8 °F 62% 29.88 in 10.0 mi WSW 4.6 mph - N/A   Overcast
5:59 PM 79.3 °F - 64.8 °F 61% 29.88 in 10.0 mi WNW 4.6 mph - N/A   Overcast
6:17 PM 80.2 °F 82.2 °F 65.7 °F 61% 29.88 in 10.0 mi West 5.8 mph - N/A   Mostly Cloudy
6:35 PM 79.2 °F - 65.8 °F 64% 29.88 in 10.0 mi WNW 5.8 mph - N/A   Mostly Cloudy
6:55 PM 78.8 °F - 66.6 °F 66% 29.89 in 10.0 mi NW 6.9 mph - N/A   Mostly Cloudy
7:15 PM 78.3 °F - 67.1 °F 68% 29.89 in 10.0 mi NNW 6.9 mph - N/A   Mostly Cloudy
7:38 PM 76.8 °F - 67.5 °F 73% 29.89 in 10.0 mi NW 6.9 mph - N/A   Scattered Clouds
7:57 PM 75.7 °F - 67.3 °F 75% 29.90 in 10.0 mi WNW 9.2 mph - N/A   Clear
8:15 PM 75.2 °F - 66.7 °F 75% 29.91 in 10.0 mi NW 12.7 mph 17.3 mph N/A   Clear
8:35 PM 74.5 °F - 66.4 °F 76% 29.92 in 10.0 mi NW 10.4 mph 18.4 mph N/A   Mostly Cloudy
8:55 PM 73.4 °F - 65.8 °F 77% 29.92 in 10.0 mi NNW 9.2 mph - N/A   Mostly Cloudy
9:18 PM 72.1 °F - 66.2 °F 82% 29.93 in 10.0 mi NNW 6.9 mph - N/A   Scattered Clouds
9:36 PM 71.6 °F - 66.2 °F 83% 29.93 in 10.0 mi NW 5.8 mph - N/A   Mostly Cloudy
9:55 PM 71.4 °F - 66.2 °F 84% 29.94 in 10.0 mi NW 5.8 mph - N/A   Overcast
10:15 PM 71.1 °F - 66.2 °F 85% 29.94 in 10.0 mi NW 5.8 mph - N/A   Overcast
10:35 PM 70.5 °F - 66.2 °F 86% 29.95 in 10.0 mi NW 4.6 mph - N/A   Overcast
10:58 PM 69.6 °F - 65.7 °F 87% 29.95 in 10.0 mi NW 4.6 mph - N/A   Scattered Clouds
11:16 PM 69.1 °F - 65.5 °F 88% 29.96 in 10.0 mi NW 3.5 mph - N/A   Scattered Clouds
11:35 PM 68.5 °F - 65.3 °F 89% 29.96 in 10.0 mi NNW 4.6 mph - N/A   Scattered Clouds
11:55 PM 68.4 °F - 65.1 °F 89% 29.95 in 10.0 mi NNW 3.5 mph - N/A   Scattered Clouds